Regional Weather Roundup
Issued by NWS

Home | Current Version | Previous Version | Graphics & Text | Print | Product List | Glossary On
Versions: 1 2 3 4 5 6 7 8 9 10 11 12 13 14 15 16 17 18 19 20 21 22 23 24 25 26 27
000
ASUS45 KCYS 200710
RWRWY

WYOMING REGIONAL WEATHER ROUNDUP
NATIONAL WEATHER SERVICE CHEYENNE WY
100 AM MDT THU JUL 20 2017

NOTE:  "FAIR" INDICATES FEW OR NO CLOUDS BELOW 12,000 FEET
WITH NO SIGNIFICANT WEATHER AND/OR OBSTRUCTIONS TO VISIBILITY.

WYZ001-200800-
YELLOWSTONE NATIONAL PARK

CITY           SKY/WX    TMP DP  RH WIND       PRES   REMARKS
LK YELLOWSTONE   N/A     46  37  71 NW3       30.33S
W YELLOWSTONE  NOT AVBL

$$
WYZ002>013-054>058-071-098>099-200800-
NORTHERN WYOMING

CITY           SKY/WX    TMP DP  RH WIND       PRES   REMARKS
JACKSON        FAIR      52  39  62 N7        30.23S
CODY           FAIR      65  44  46 CALM      30.11F
GREYBULL       FAIR      80  51  36 SE16G24   30.01S
WORLAND        FAIR      78  55  44 SE17      30.04F
SHERIDAN       FAIR      73  49  42 SE8       30.03F
BUFFALO        FAIR      70  45  40 CALM      30.13F
GILLETTE       FAIR      74  55  51 SE8       30.10F
HULETT         FAIR      73  54  49 SE14      30.14S
NEWCASTLE      FAIR      73  50  43 SE12      30.16S

$$
WYZ014>020-022>026-101>103-200800-
CENTRAL WYOMING

CITY           SKY/WX    TMP DP  RH WIND       PRES   REMARKS
BIG PINEY      FAIR      62  50  64 SE10      30.31R
PINEDALE       FAIR      59  50  72 SE7       30.34S
DUBOIS         FAIR      59  32  36 W6        30.28R
LANDER         FAIR      71  50  47 N10       30.12R
RIVERTON       FAIR      71  52  50 S15G23    30.11F
CASPER         FAIR      72  53  51 S9        30.17F
DOUGLAS        CLOUDY    72  54  53 SE8       30.20R

$$
WYZ021-027>030-104>119-200800-
SOUTHERN WYOMING

CITY           SKY/WX    TMP DP  RH WIND       PRES   REMARKS
EVANSTON       FAIR      65  48  54 SW3       30.29S
KEMMERER         N/A     63  45  51 CALM      30.31S
FORT BRIDGER   PTSUNNY   64  48  56 S9        30.30F
ROCK SPRINGS   FAIR      64  50  60 S9        30.29F
RAWLINS        FAIR      60  54  80 NE6       30.31F
SARATOGA       FAIR      61  59  94 S7G18     30.35F
LARAMIE        CLOUDY    61  55  81 SE5       30.37F
CHEYENNE       MOCLDY    68  54  60 N9        30.28S
TORRINGTON     FAIR      67  63  87 N15       30.12F
PINE BLUFFS    FAIR      64  59  82 N9G18     30.24R

$$




USA.gov is the U.S. government's official web portal to all federal, state and local government web resources and services.